FW0135 Weather Reports


time (UTC)temp
C
wind
direction
speed
KPH
gust
KPH
rain 1hr
cm
rain 24hr
cm
rain mn
cm
humidity
%
barometer
mb
20260507050455 8 107 0.0 0.0 0.00 0.79 0.00 92 992.5
20260507045953 8 107 0.0 0.0 0.00 0.79 0.00 91 992.6
20260507045455 8 107 0.0 0.0 0.00 0.79 0.00 91 992.4
20260507044953 8 107 0.0 0.0 0.00 0.79 0.00 91 992.6
20260507043953 8 107 0.0 0.0 0.00 0.79 0.00 91 992.7
20260507043455 8 107 0.0 0.0 0.00 0.79 0.00 91 992.6
20260507042454 8 107 0.0 0.0 0.00 0.79 0.00 91 992.5
20260507041953 8 107 0.0 0.0 0.00 0.79 0.00 91 992.8
20260507041453 8 107 0.0 0.0 0.00 0.79 0.00 90 993.1
20260507040953 9 147 0.0 0.0 0.00 0.79 0.00 91 992.8
20260507040453 9 147 0.0 0.0 0.00 0.79 0.00 90 992.8
20260507035953 9 147 0.0 0.0 0.00 0.79 0.79 91 992.8
20260507035448 9 147 0.0 4.8 0.00 0.79 0.79 91 992.7
20260507034943 9 147 1.6 4.8 0.05 0.79 0.79 91 992.7
20260507034443 10 146 0.0 3.2 0.08 0.79 0.79 91 992.6
20260507033944 10 133 0.0 1.6 0.08 0.79 0.79 91 992.5
20260507033440 10 133 0.0 1.6 0.08 0.79 0.79 91 992.5
20260507032941 10 133 0.0 1.6 0.08 0.79 0.79 91 992.5
20260507032441 10 133 0.0 0.0 0.10 0.79 0.79 91 992.4
20260507031938 10 133 0.0 1.6 0.10 0.79 0.79 91 992.5
20260507031438 10 133 0.0 1.6 0.10 0.79 0.79 91 992.4
20260507030936 10 133 0.0 0.0 0.10 0.79 0.79 91 992.4
20260507030434 10 133 0.0 0.0 0.10 0.79 0.79 91 992.5
20260507025934 10 133 0.0 3.2 0.10 0.79 0.79 91 992.5
20260507025434 10 133 0.0 3.2 0.08 0.76 0.79 91 992.6
20260507024934 10 133 0.0 3.2 0.05 0.74 0.74 91 992.6
20260507024434 10 133 0.0 1.6 0.05 0.71 0.71 91 992.5
20260507023935 10 133 0.0 6.4 0.05 0.71 0.71 90 992.5
20260507023431 10 133 0.0 6.4 0.05 0.71 0.71 90 992.6
20260507022930 11 56 1.6 4.8 0.08 0.71 0.71 90 992.5
20260507021929 11 5 1.6 8.0 0.08 0.69 0.69 89 992.4
20260507021430 11 107 1.6 6.4 0.08 0.69 0.69 90 992.3
20260507020930 12 27 1.6 4.8 0.08 0.69 0.69 90 992.0
20260507015928 12 66 0.0 9.7 0.25 0.69 0.69 91 991.7
20260507015430 12 309 0.0 0.0 0.30 0.69 0.69 91 991.6
20260507014925 12 309 0.0 0.0 0.30 0.69 0.69 91 991.6
20260507014425 13 309 0.0 0.0 0.28 0.66 0.69 91 991.4
20260507013924 13 309 0.0 1.6 0.28 0.66 0.66 91 991.3
20260507013425 13 309 0.0 1.6 0.30 0.66 0.66 91 991.3
20260507012425 13 309 0.0 0.0 0.28 0.64 0.64 91 991.2
20260507011923 13 309 0.0 3.2 0.25 0.61 0.61 91 991.3
20260507011421 13 309 0.0 3.2 0.25 0.61 0.61 90 991.1
20260507005919 14 309 1.6 6.4 0.08 0.43 0.48 91 991.1
20260507005419 15 309 1.6 4.8 0.03 0.38 0.38 92 990.9
20260507004913 15 211 0.0 0.0 0.03 0.38 0.38 92 990.4
20260507004407 15 211 0.0 0.0 0.03 0.38 0.38 92 990.3
20260507003901 15 211 0.0 0.0 0.03 0.38 0.38 92 990.2
20260507003355 15 211 0.0 0.0 0.00 0.36 0.36 92 990.2
20260507002849 15 211 0.0 0.0 0.00 0.36 0.36 92 990.0
20260507002343 15 211 0.0 0.0 0.00 0.36 0.36 92 990.1
20260507001838 15 211 0.0 0.0 0.00 0.36 0.36 92 990.0
20260507001331 15 211 0.0 0.0 0.00 0.36 0.36 92 990.0
20260507000825 15 211 0.0 0.0 0.00 0.36 0.36 92 990.0
20260506235813 15 211 0.0 0.0 0.00 0.36 0.36 91 989.9
20260506234801 15 211 0.0 0.0 0.00 0.36 0.36 91 989.8
20260506234254 15 211 0.0 0.0 0.00 0.36 0.36 91 989.8
20260506233748 15 211 0.0 0.0 0.00 0.36 0.36 91 989.6
20260506233242 15 211 0.0 0.0 0.00 0.36 0.36 91 989.6
20260506232736 15 211 0.0 0.0 0.00 0.36 0.36 91 989.6
20260506232230 15 211 0.0 0.0 0.00 0.36 0.36 91 989.7
20260506231724 15 211 0.0 0.0 0.00 0.36 0.36 91 989.8
20260506231218 15 211 0.0 0.0 0.00 0.36 0.36 91 989.9
20260506230207 15 211 0.0 0.0 0.00 0.36 0.36 91 989.9
20260506225155 15 211 0.0 1.6 0.00 0.36 0.36 91 989.8
20260506224143 15 211 0.0 4.8 0.00 0.36 0.36 91 989.8
20260506223637 15 211 0.0 4.8 0.00 0.36 0.36 91 989.8
20260506222624 15 209 0.0 3.2 0.00 0.36 0.36 91 989.9
20260506222118 15 209 0.0 3.2 0.00 0.36 0.36 91 989.9
20260506221613 15 207 0.0 3.2 0.00 0.36 0.36 91 989.9
20260506221107 15 252 0.0 3.2 0.00 0.36 0.36 91 989.9
20260506220601 15 252 0.0 3.2 0.00 0.36 0.36 90 990.0
20260506220055 15 252 1.6 3.2 0.00 0.36 0.36 90 990.1
20260506215548 16 252 0.0 3.2 0.00 0.36 0.36 90 990.0
20260506215042 16 211 0.0 4.8 0.00 0.36 0.36 91 990.0
20260506214537 16 211 0.0 4.8 0.00 0.36 0.36 91 990.0
20260506214031 16 211 0.0 6.4 0.00 0.36 0.36 91 990.0
20260506213525 16 211 0.0 6.4 0.00 0.36 0.36 91 990.0
20260506212512 16 184 0.0 1.6 0.00 0.36 0.36 91 990.1
20260506212006 16 184 0.0 1.6 0.00 0.36 0.36 91 990.0
20260506211501 16 184 0.0 1.6 0.03 0.36 0.36 91 990.2
20260506205437 16 185 0.0 1.6 0.05 0.36 0.36 91 990.3
20260506204931 16 185 0.0 1.6 0.08 0.36 0.36 91 990.4
20260506204424 16 185 0.0 1.6 0.10 0.36 0.36 91 990.3
20260506203918 16 172 0.0 1.6 0.13 0.36 0.36 91 990.4
20260506203413 16 172 0.0 4.8 0.13 0.36 0.36 91 990.4
20260506202401 16 62 0.0 3.2 0.18 0.36 0.36 91 990.5
20260506201854 16 62 0.0 4.8 0.15 0.33 0.33 91 990.6
20260506200843 16 57 0.0 4.8 0.15 0.33 0.33 91 990.5
20260506195831 16 200 0.0 1.6 0.13 0.30 0.30 91 990.6
20260506195324 16 200 0.0 0.0 0.10 0.28 0.28 91 990.6
20260506194819 16 200 0.0 0.0 0.10 0.28 0.28 90 990.7
20260506194312 16 200 0.0 0.0 0.10 0.25 0.25 90 990.8
20260506192801 16 200 0.0 1.6 0.08 0.20 0.20 90 990.9
20260506192257 16 200 0.0 1.6 0.05 0.18 0.18 90 991.0
20260506191755 16 200 0.0 1.6 0.05 0.18 0.18 90 991.0
20260506190756 16 200 0.0 1.6 0.08 0.18 0.18 90 990.9
20260506190257 16 200 0.0 1.6 0.08 0.18 0.18 90 990.8
20260506185756 16 200 0.0 1.6 0.10 0.18 0.18 90 990.8
20260506185256 16 200 0.0 1.6 0.10 0.18 0.18 89 991.0
20260506184756 16 200 0.0 1.6 0.13 0.18 0.18 89 991.3
20260506184257 16 200 0.0 1.6 0.10 0.15 0.15 89 991.4
20260506183752 16 200 0.0 1.6 0.10 0.15 0.15 89 991.5
20260506182752 16 200 0.0 1.6 0.10 0.13 0.13 88 991.9
20260506182253 16 200 0.0 1.6 0.13 0.13 0.13 88 992.0
20260506181752 16 200 0.0 1.6 0.13 0.13 0.13 88 992.0
20260506181251 16 200 0.0 1.6 0.10 0.10 0.10 88 992.0
20260506180753 16 200 0.0 3.2 0.10 0.10 0.10 87 992.0
20260506180253 17 200 0.0 3.2 0.10 0.10 0.10 87 992.1
20260506175753 17 200 0.0 0.0 0.08 0.08 0.08 87 992.1
20260506174752 17 200 0.0 1.6 0.05 0.05 0.08 86 992.4
20260506174249 17 200 0.0 1.6 0.05 0.05 0.05 85 992.4
20260506173752 17 200 0.0 0.0 0.05 0.05 0.05 85 992.4
20260506173247 17 200 0.0 0.0 0.03 0.03 0.03 84 992.5
20260506172746 18 200 0.0 1.6 0.03 0.03 0.03 83 992.4
20260506172247 18 200 0.0 3.2 0.00 0.00 0.00 82 992.4
20260506171745 18 200 0.0 3.2 0.00 0.00 0.00 81 992.3
20260506171244 18 200 0.0 3.2 0.00 0.00 0.00 80 992.3
20260506170245 19 248 0.0 3.2 0.00 0.00 0.00 77 992.3
20260506165241 20 230 0.0 3.2 0.00 0.00 0.00 74 992.1
20260506164741 20 230 1.6 4.8 0.00 0.00 0.00 73 992.1
20260506163231 20 225 0.0 3.2 0.00 0.00 0.00 71 992.2
20260506162725 20 225 0.0 3.2 0.00 0.00 0.00 72 992.3
20260506162219 20 225 1.6 4.8 0.00 0.00 0.00 72 992.4
20260506161207 20 288 1.6 4.8 0.00 0.00 0.00 72 992.6
20260506160701 20 211 1.6 8.0 0.00 0.00 0.00 74 992.6
20260506160155 20 290 0.0 8.0 0.00 0.00 0.00 74 992.6
20260506155649 20 249 0.0 3.2 0.00 0.00 0.00 75 992.7
20260506155142 19 249 1.6 3.2 0.00 0.00 0.00 75 992.9
20260506154637 19 249 1.6 3.2 0.00 0.00 0.00 75 993.0
20260506154130 19 194 1.6 4.8 0.00 0.00 0.00 74 993.1
20260506153625 20 74 1.6 4.8 0.00 0.00 0.00 75 993.2
20260506153119 20 284 0.0 4.8 0.00 0.00 0.00 74 993.2
20260506152612 20 284 1.6 4.8 0.00 0.00 0.00 74 993.3
20260506151601 19 282 0.0 3.2 0.00 0.00 0.00 75 993.4
20260506151055 19 282 0.0 3.2 0.00 0.00 0.00 75 993.4
20260506150549 19 282 0.0 3.2 0.00 0.00 0.00 76 993.4
20260506150043 19 282 0.0 3.2 0.00 0.00 0.00 75 993.3
20260506145537 19 282 0.0 3.2 0.00 0.00 0.00 75 993.3
20260506145031 19 294 0.0 3.2 0.00 0.00 0.00 75 993.2
20260506144525 19 294 0.0 3.2 0.00 0.00 0.00 76 993.2
20260506144019 19 294 0.0 6.4 0.00 0.00 0.00 75 993.4
20260506143513 19 294 1.6 6.4 0.00 0.00 0.00 74 993.5
20260506143007 19 280 1.6 4.8 0.00 0.00 0.00 74 993.4
20260506142501 19 280 0.0 3.2 0.00 0.00 0.00 75 993.3
20260506141954 19 247 0.0 0.0 0.00 0.00 0.00 76 993.1
20260506141449 19 247 0.0 0.0 0.00 0.00 0.00 77 993.2
20260506140942 19 246 0.0 0.0 0.00 0.00 0.00 77 993.2
20260506140437 18 94 0.0 0.0 0.00 0.00 0.00 78 993.2
20260506135931 18 94 0.0 0.0 0.00 0.00 0.00 80 993.2
20260506135425 18 94 0.0 0.0 0.00 0.00 0.00 81 993.1
20260506134919 17 93 0.0 0.0 0.00 0.00 0.00 82 993.1
20260506134413 17 105 0.0 0.0 0.00 0.00 0.00 82 993.2
20260506133907 17 105 0.0 0.0 0.00 0.00 0.00 83 993.3
20260506133401 17 105 0.0 0.0 0.00 0.00 0.00 83 993.3
20260506131843 17 107 0.0 0.0 0.00 0.00 0.00 83 993.6
20260506130831 16 107 0.0 0.0 0.00 0.00 0.00 83 993.9
20260506130325 16 107 0.0 0.0 0.00 0.00 0.00 83 993.9
20260506125819 16 107 0.0 0.0 0.00 0.00 0.00 83 993.8
20260506125312 16 107 0.0 0.0 0.00 0.00 0.00 83 993.8
20260506124812 16 107 0.0 0.0 0.00 0.00 0.00 83 993.8
20260506124308 16 107 0.0 0.0 0.00 0.00 0.00 83 993.8
20260506123807 16 107 0.0 0.0 0.00 0.00 0.00 83 993.9
20260506122807 16 107 0.0 0.0 0.00 0.00 0.00 85 993.8
20260506122306 16 107 0.0 0.0 0.00 0.00 0.00 85 993.6
20260506121806 15 107 0.0 0.0 0.00 0.00 0.00 85 993.7
20260506121306 15 107 0.0 0.0 0.00 0.00 0.00 85 993.8
20260506120306 15 107 0.0 0.0 0.00 0.00 0.00 86 993.9
20260506115804 15 107 0.0 0.0 0.00 0.00 0.00 86 993.8
20260506115306 15 107 0.0 0.0 0.00 0.00 0.00 86 994.0
20260506114800 15 107 0.0 0.0 0.00 0.00 0.00 87 994.0
20260506114256 14 107 0.0 0.0 0.00 0.00 0.00 87 994.0
20260506113757 14 107 0.0 0.0 0.00 0.00 0.00 87 994.0
20260506113254 14 107 0.0 0.0 0.00 0.00 0.00 87 994.1
20260506112757 13 107 0.0 0.0 0.00 0.00 0.00 87 994.1
20260506112252 13 107 0.0 0.0 0.00 0.00 0.00 88 994.1
20260506111250 13 107 0.0 0.0 0.00 0.00 0.00 88 994.2
20260506110750 13 107 0.0 0.0 0.00 0.00 0.00 87 994.1
20260506105750 13 107 0.0 0.0 0.00 0.00 0.00 87 994.1
20260506105252 13 107 0.0 0.0 0.00 0.00 0.00 87 994.0
20260506104751 13 107 0.0 0.0 0.00 0.00 0.00 87 994.0
20260506104252 12 107 0.0 0.0 0.00 0.00 0.00 87 994.0
20260506103751 12 107 0.0 0.0 0.00 0.00 0.00 87 994.2
20260506103251 12 107 0.0 0.0 0.00 0.00 0.00 87 994.2
20260506102750 12 107 0.0 0.0 0.00 0.00 0.00 87 994.0
20260506102250 12 107 0.0 0.0 0.00 0.00 0.00 87 994.2
20260506101750 12 107 0.0 0.0 0.00 0.00 0.00 87 994.2
20260506101251 12 107 0.0 0.0 0.00 0.00 0.00 87 993.9
20260506100750 12 107 0.0 0.0 0.00 0.00 0.00 87 993.9
20260506100252 12 107 0.0 0.0 0.00 0.00 0.00 87 994.0
20260506095748 12 107 0.0 0.0 0.00 0.00 0.00 87 994.1
20260506095243 12 107 0.0 0.0 0.00 0.00 0.00 87 994.0
20260506094736 12 107 0.0 0.0 0.00 0.00 0.00 86 993.8
20260506093725 12 107 0.0 0.0 0.00 0.00 0.00 86 993.9
20260506093219 12 107 0.0 0.0 0.00 0.00 0.00 86 994.0
20260506092713 12 107 0.0 0.0 0.00 0.00 0.00 86 993.9
20260506092207 12 107 0.0 0.0 0.00 0.00 0.00 86 993.9
20260506091700 12 107 0.0 0.0 0.00 0.00 0.00 86 994.0
20260506091155 12 107 0.0 0.0 0.00 0.00 0.00 86 993.9
20260506085637 13 107 0.0 0.0 0.00 0.00 0.00 85 994.1
20260506085131 13 107 0.0 0.0 0.00 0.00 0.00 85 994.0
20260506084625 13 107 0.0 0.0 0.00 0.00 0.00 85 994.0
20260506084118 13 107 0.0 0.0 0.00 0.00 0.00 85 993.9
20260506083613 13 107 0.0 0.0 0.00 0.00 0.00 85 994.0
20260506082601 13 107 0.0 0.0 0.00 0.00 0.00 84 994.0
20260506081549 13 107 0.0 0.0 0.00 0.00 0.00 84 994.1
20260506081043 13 107 0.0 0.0 0.00 0.00 0.00 84 994.1
20260506080537 13 107 0.0 0.0 0.00 0.00 0.00 84 994.1
20260506073501 14 107 0.0 0.0 0.00 0.00 0.00 83 994.0
20260506072449 15 107 0.0 0.0 0.00 0.00 0.00 83 994.0
20260506071943 15 107 0.0 0.0 0.00 0.00 0.00 83 994.0
20260506070425 15 107 0.0 0.0 0.00 0.00 0.00 82 994.0
20260506062336 15 107 0.0 0.0 0.00 0.00 0.00 80 993.7
20260506061830 15 107 0.0 0.0 0.00 0.00 0.00 80 993.7
20260506061325 15 107 0.0 1.6 0.00 0.00 0.00 80 993.8
20260506060818 15 107 0.0 1.6 0.00 0.00 0.00 80 993.7
20260506060313 15 107 0.0 0.0 0.00 0.00 0.00 80 993.6
20260506051212 16 82 0.0 0.0 0.00 0.00 0.00 79 993.8